Location: Moy Burn
(57.3833°N, 4.0667°W)
Time: 09:15:07
(UTC+00:00)

Cosmos 1437 Rocket - Pass Details

Date: 08 August 2020
Orbit: 505 x 563 km, 81.2° (Epoch: 18 September)

Event Time Altitude Azimuth Distance (km) Brightness Sun altitude
Rises 22:01:27 0° 344° (NNW) 2,659 7.9 -11.2°
Reaches altitude 10° 22:03:37 10° 344° (NNW) 1,758 6.7 -11.4°
Maximum altitude 22:07:28 85° 259° (W) 522 2.7 -11.7°
Enters shadow 22:10:19 17° 169° (S) 1,344 4.2 -11.9°
